ZHANGHENG 1-02

Satellite information

Favourite Embed

Satellite Type and Status

PAYLOADIN ORBIT

Key statistics

Satellite ZHANGHENG 1-02 at a glance.

Uptime

182

Days in orbit

Revolutions

≈ 15.2

Per day

Orbit

SSO

Sun Synchronous Orbit

Inclination

97.3

Latest

Satellite identification and parameters

Extended collection of information and parameters for ZHANGHENG 1-02.

Object identification

Identified? True

Debris? False

Object name: ZHANGHENG 1-02

International designator: 2025-128A

Object number (NORAD): 64393

Object ID (CCSDS): 64393

Country: PEOPLES REPUBLIC OF CHINA (PRC)

Current information (Y/N): Y

RCS size: LARGE

Orbital parameters

Period: 94.673 minutes

Inclination: 97.3367 deg

SMA: 6880.885 km

Apoapsis: 512.039 km

Periapsis: 493.461 km

RAAN: 112.7369 deg

Eccentricy: 0.00134994

Argument of periapsis: 45.1817 deg

Mean anomaly: 315.0514 deg

Mean motion: 15.21024845 rev/day

Mean motion (dot): 0.00003113 rev/day2

B* drag term: 0.00014305251 1/REarth

Two-line elements (TLE)

Creation date: Dec. 12, 2025, 10:14 a.m.

Reference frame: TEME

Reference center: EARTH

Epoch: Dec. 12, 2025, 8:18 a.m. UTC

TLE line 0: 0 ZHANGHENG 1-02

TLE line 1: 1 64393U 25128A 25346.34621229 .00003113 00000-0 14305-3 0 9996

TLE line 2: 2 64393 97.3367 112.7369 0013499 45.1817 315.0514 15.21024845 27520

Live tracking on map

Real-time ground track for satellite ZHANGHENG 1-02.

In-orbit conjunctions

There are no conjunctions computed for ZHANGHENG 1-02, at the moment. Check back to stay up to date, as we update our databases every day.

Go to all conjunctions

Associated space launch

Zhangheng 1-02, also known as CSES-02 (China Seismo-Electromagnetic Satellite-02), is the follow-on mission to Zhangheng 1/CSES, a Chinese–Italian space mission dedicated to monitoring the electromagnetic field and waves, plasma parameters, and particle fluxes induced by natural sources and artificial emitters in near-Earth space, to study their correlations with the occurrence of seismic events. The satellite mission is part of a collaboration program between the CNSA (China National Space Administration) and ASI (Italian Space Agency), and developed by CEA (China Earthquake Administration) and INFN (Italian National Institute for Nuclear Physics), together with several Chinese and Italian Universities and research Institutes.

ZHANGHENG 1-02 was lifted into orbit during the mission ‘Long March 2D | Zhangheng-1-02’, on board a Long March 2D space rocket.

The launch took place on June 14, 2025, 7:56 a.m. from Launch Area 94 (SLS-2 / 603).

For more information about the launch, click the button.

Launch to space Long March 2D | Zhangheng-1-02
Long March 2D | Zhangheng-1-02

Agency: N/A

Status: Launch Successful

Launch date: June 14, 2025, 7:56 a.m. UTC

Rocket: Long March 2D

Launch pad: Launch Area 94 (SLS-2 / 603)

Location: Jiuquan Satellite Launch Center, People's Republic of China

...

Latest news about this satellite

News about space launch
China launches new seismo-electromagnetic satellite with European partners

China launched a second collaborative seismo-electromagnetic satellite early Saturday, aimed at detecting electromagnetic precursors to natural disasters such as earthquakes. The post China launches new seismo-electromagnetic satellite with European part...

News about space launch
Launch Roundup: ULA to launch Kuiper’s second batch of satellites, SpaceX to launch Axiom crew to ISS

SpaceX will launch Axiom Space’s fourth private crewed mission to the International Space Station (ISS)… The post Launch Roundup: ULA to launch Kuiper’s second batch of satellites, SpaceX to launch Axiom crew to ISS appeared first on NASASpaceFlight.com.


Newsletter sign-up

Weekly statistics, charts and insights to help you stay on top of the space industry.